Wind_Speed
43 42 41 44 47 48 47 40 32 15 14 20 23 23 27 34 38 35 33 28 42 63 62 59 61 56 46 43 52 58 59 47 40 36 34 50 47 47 43 44 44 47 40 36 39 38 35 33 31
43 42 43 46 48 48 49 49 44 39 15 21 21 18 17 22 29 35 35 29 35 62 65 59 56 57 57 57 53 60 62 59 35 48 41 43 45 45 43 45 48 44 37 39 40 44 39 35 34
46 45 46 48 49 50 49 50 49 47 36 22 20 18 16 15 18 25 30 34 30 61 70 66 63 59 42 43 46 52 62 61 50 50 48 41 47 51 50 47 48 41 35 35 41 45 43 40 38
43 44 45 47 49 48 48 47 48 45 45 36 20 23 16 20 16 20 25 30 30 55 75 73 67 66 53 52 58 49 54 62 53 54 59 53 46 46 51 53 50 45 44 44 45 48 46 42 41
41 43 46 48 47 52 47 44 46 45 44 46 38 27 18 19 18 18 20 25 33 49 77 84 73 74 54 56 59 57 55 60 53 53 63 59 58 55 53 55 54 55 46 38 42 43 46 47 45
42 44 48 48 50 53 50 46 44 44 41 42 43 37 25 17 20 23 19 20 31 44 76 88 77 78 69 59 53 66 64 51 65 64 75 67 63 62 58 58 60 59 55 47 46 44 44 46 47
44 46 50 49 51 54 51 47 45 44 43 41 42 42 44 33 25 21 21 18 22 37 70 87 87 79 84 67 62 60 59 55 63 69 77 72 67 67 60 62 67 62 58 50 53 48 43 48 48
45 46 51 57 58 55 54 52 51 46 43 42 39 39 39 42 39 26 23 19 19 31 51 83 95 83 90 88 71 64 65 59 60 67 70 75 65 70 67 64 64 64 62 48 60 59 55 50 51
46 51 57 58 55 55 56 52 53 51 47 44 42 41 39 41 40 37 32 23 21 23 40 70 90 87 90 81 85 74 71 69 66 68 72 74 69 69 65 70 66 64 62 62 56 62 61 64 59
49 51 57 56 54 56 55 55 53 54 47 44 45 44 43 42 38 38 38 29 22 25 28 48 88 96 94 93 87 80 78 78 74 68 72 73 72 71 73 68 68 65 60 60 57 69 68 64 63
49 53 53 55 54 60 61 58 55 56 54 53 46 45 44 40 41 40 41 40 30 25 28 34 55 88 98 103 94 96 85 90 83 71 71 73 77 76 74 74 76 74 72 69 61 59 63 59 61
45 50 51 56 58 59 61 58 57 55 55 56 49 48 46 44 42 44 44 47 42 34 30 31 41 76 95 103 99 101 111 100 96 94 84 76 86 90 87 74 75 80 80 78 78 64 55 53 52
48 49 55 58 61 62 63 58 58 58 57 57 58 57 53 52 49 48 49 51 48 47 41 35 35 46 79 106 106 105 99 107 99 98 102 97 87 95 99 91 89 79 79 79 79 74 62 61 59
52 54 57 58 62 64 63 61 58 58 60 61 60 65 60 55 56 56 55 55 55 53 48 43 41 41 48 89 106 107 97 97 94 100 95 93 98 96 95 94 93 88 80 82 82 81 74 67 68
52 53 56 57 62 63 65 65 60 60 63 61 62 64 61 58 60 59 63 63 62 60 56 53 46 46 48 56 90 112 110 104 101 104 105 104 103 94 95 98 93 92 84 82 87 85 87 81 70
50 52 57 58 61 63 69 64 62 63 64 68 67 64 63 61 64 62 67 69 70 67 64 56 54 52 50 57 64 82 106 117 109 105 106 103 99 96 104 104 102 96 93 94 92 92 94 86 84
51 55 56 59 62 67 68 66 65 68 66 70 66 64 68 67 68 69 68 73 77 74 70 68 59 53 55 57 65 70 85 107 119 118 113 111 116 99 103 103 108 102 92 94 94 87 89 92 92
56 59 60 60 65 66 66 68 68 69 67 68 69 66 75 73 72 72 73 80 81 75 67 63 61 56 51 57 63 69 71 88 110 121 125 119 116 118 103 105 103 105 104 95 96 96 96 94 96
58 60 60 62 67 66 68 70 71 72 70 71 73 73 76 83 79 80 79 83 81 74 72 65 57 46 48 51 58 69 73 72 89 100 125 124 122 117 116 107 105 106 104 109 109 104 104 106 104
61 62 61 64 67 67 71 73 75 71 71 73 79 80 84 84 86 84 81 79 80 77 75 71 63 53 49 49 54 60 71 72 79 90 103 121 128 119 117 117 114 111 111 106 108 105 105 102 106
62 61 61 65 67 70 73 73 74 71 74 76 83 81 91 92 88 89 88 85 82 79 74 69 63 59 54 53 56 59 60 76 72 82 94 105 118 128 120 120 128 124 116 112 116 112 109 107 107
65 64 64 67 69 71 73 74 75 75 79 81 87 90 97 102 91 89 85 83 84 78 67 66 61 62 60 59 59 62 62 63 74 79 87 98 108 115 118 123 122 127 127 119 121 119 115 114 111
73 70 69 71 70 71 73 78 78 80 83 85 88 94 100 103 95 93 84 71 71 67 68 65 68 68 65 62 61 65 70 70 71 78 84 94 103 111 114 124 124 122 124 122 121 121 122 118 117
69 70 71 75 73 73 77 80 80 83 87 90 90 95 102 106 99 97 86 72 76 75 74 76 71 67 67 71 67 65 69 78 80 82 83 89 100 106 112 117 129 127 125 125 123 121 125 121 120
73 76 76 79 76 77 81 81 84 87 89 91 94 102 105 106 98 90 78 83 78 75 70 71 71 64 65 65 72 73 71 75 81 86 85 88 95 103 108 111 119 133 132 127 129 122 123 124 122
75 79 80 80 79 83 85 87 87 91 91 95 96 104 111 105 98 99 79 85 81 81 71 66 64 59 58 62 65 76 75 77 79 85 86 88 91 97 106 111 113 123 134 134 133 128 125 120 118
78 80 81 82 85 85 87 88 91 93 95 101 105 110 114 110 104 76 85 78 75 75 64 59 58 56 50 58 65 72 79 78 80 83 87 87 91 91 101 107 112 117 122 130 141 134 134 127 120
79 82 85 85 88 88 89 88 95 93 97 102 110 111 109 112 92 75 85 72 73 68 61 55 55 52 46 48 59 69 77 80 79 81 87 89 90 92 94 103 107 112 118 123 126 138 136 136 129
80 83 86 86 88 90 91 91 96 96 100 109 112 112 111 107 92 78 73 72 74 65 62 57 54 51 44 46 49 63 74 79 84 84 86 90 94 93 94 98 102 105 112 117 125 125 135 136 137
85 88 87 87 88 90 94 96 100 99 103 111 117 111 111 103 88 84 74 73 75 69 63 61 53 47 43 40 46 55 68 82 84 86 87 89 92 93 97 98 99 102 107 111 118 122 125 133 137
Wind_Direction
342 344 345 345 344 345 345 2 350 338 333 311 280 283 277 274 273 271 266 248 220 205 201 199 207 207 216 223 223 227 229 230 234 245 256 247 244 240 241 244 245 247 244 253 258 253 253 257 259
342 344 344 345 344 344 346 352 354 350 344 337 312 300 294 292 276 267 262 250 220 204 200 196 201 208 214 225 228 229 229 232 243 239 244 244 239 235 236 236 238 244 244 247 250 255 257 258 260
345 345 347 350 349 347 348 351 352 351 347 3 340 317 323 322 300 270 259 249 218 203 195 191 198 201 197 201 201 221 223 224 210 224 227 230 237 235 233 232 233 234 238 243 245 249 257 258 260
343 345 350 354 358 353 350 351 351 351 350 353 7 350 314 315 315 282 265 248 219 206 197 192 199 198 197 206 200 214 225 216 219 223 223 220 226 231 234 236 228 228 234 242 248 251 255 258 254
341 345 347 352 353 358 353 352 353 350 347 344 350 351 352 316 314 302 280 251 230 206 200 197 198 203 201 209 212 212 216 223 223 220 221 228 224 226 230 230 233 230 231 232 247 254 253 255 255
341 347 346 349 351 353 356 350 349 349 345 342 342 349 354 336 313 307 304 265 240 213 202 201 201 207 204 208 215 215 213 217 208 220 225 224 225 228 229 230 233 233 231 235 237 249 254 255 255
348 349 354 355 353 354 355 355 349 347 346 344 340 334 337 341 343 322 305 298 256 229 207 206 204 205 207 208 210 203 204 210 215 221 223 220 227 227 229 231 231 232 232 236 246 239 249 250 245
359 1 355 353 351 352 353 354 351 348 344 342 339 336 329 326 329 328 319 297 273 238 216 209 209 206 209 214 213 217 212 209 216 211 218 218 222 227 230 229 230 230 230 220 240 248 246 245 252
347 345 349 349 348 347 350 351 354 352 344 338 334 330 327 323 325 324 324 309 283 259 232 219 212 210 209 212 212 214 218 211 221 220 216 225 221 224 228 230 229 228 230 232 245 252 254 252 247
343 339 344 343 343 341 344 345 345 345 345 338 332 330 326 321 321 318 316 312 303 275 253 227 217 219 211 212 211 211 216 216 218 221 226 222 220 223 228 229 229 228 227 224 229 238 247 247 252
341 339 341 343 341 340 341 340 341 339 339 339 334 330 326 322 313 309 306 304 292 282 270 250 228 220 216 214 214 214 214 219 218 219 226 225 223 224 229 231 231 232 234 229 229 236 243 247 246
339 335 337 340 339 338 341 340 338 337 335 336 332 332 328 321 316 309 302 299 298 287 275 264 248 227 222 217 216 222 223 225 223 228 229 229 231 235 237 235 235 231 235 235 234 237 234 238 246
334 331 333 334 335 334 337 338 336 334 333 332 331 331 328 326 321 313 305 301 297 293 286 261 251 246 230 220 222 225 224 228 225 227 230 232 236 242 245 245 243 237 230 231 232 233 234 236 241
331 330 331 330 331 333 334 333 334 332 331 331 329 330 326 323 320 313 307 301 297 295 290 284 259 254 247 232 226 222 222 224 227 227 227 228 232 235 240 244 246 238 231 231 232 232 235 241 243
330 329 328 327 328 330 330 330 332 330 329 330 326 324 324 323 318 312 305 301 297 296 295 292 284 259 248 242 235 228 223 224 224 231 231 232 230 233 238 241 244 241 235 235 233 233 238 242 241
330 330 329 324 325 326 327 329 329 328 328 328 322 323 326 323 319 310 306 299 299 298 297 297 290 280 257 243 237 237 234 227 225 228 230 230 229 230 236 239 240 241 241 238 237 241 238 240 243
327 329 329 326 328 326 327 327 327 327 327 325 325 325 328 324 322 314 305 300 300 303 303 300 295 277 268 252 238 237 236 236 231 227 228 234 234 230 231 235 237 239 239 241 236 236 238 238 242
325 327 327 327 328 328 327 326 324 324 324 325 325 327 328 325 323 318 316 308 306 307 308 302 294 281 268 256 246 236 236 235 235 232 228 229 234 234 229 231 235 236 238 237 237 236 240 243 243
326 326 328 328 326 325 324 323 323 323 324 327 324 326 331 330 327 323 315 312 311 311 310 309 301 286 275 257 251 243 234 238 234 234 233 231 229 233 231 229 233 237 239 240 241 241 243 244 247
324 324 324 326 326 323 323 321 321 322 322 325 327 329 331 330 331 327 322 314 313 313 315 313 305 293 282 264 254 249 243 236 236 234 232 234 232 231 232 229 233 234 238 238 241 241 242 244 245
321 321 323 323 324 322 323 321 323 323 321 324 327 327 332 332 330 328 318 317 314 315 310 306 297 290 285 268 259 255 246 239 236 235 233 230 232 234 233 231 233 235 236 240 240 241 243 245 244
318 320 321 322 323 323 321 321 320 321 322 325 327 331 332 333 331 327 319 316 314 310 299 291 285 281 277 273 258 253 251 246 238 236 235 232 230 228 229 227 231 234 235 236 241 240 240 242 243
316 319 319 324 322 321 319 321 321 322 325 326 326 331 333 333 330 322 322 316 314 305 299 288 280 273 269 269 261 253 248 247 242 239 236 234 231 230 226 225 226 230 233 232 236 237 238 239 240
315 320 319 322 322 320 320 321 324 323 325 327 327 330 332 331 327 326 319 319 310 306 297 292 288 280 268 260 258 253 247 245 244 240 236 234 231 230 229 226 224 226 229 229 232 233 236 237 239
313 317 318 321 319 319 320 320 322 324 324 326 330 331 331 332 328 326 314 312 308 303 300 295 288 280 271 257 254 251 245 241 241 242 238 233 232 229 229 228 226 225 227 227 231 230 235 238 238
311 312 315 319 318 320 320 321 323 325 327 328 327 328 330 331 330 322 317 314 311 305 305 298 292 284 267 258 250 248 244 239 236 237 239 237 233 230 229 226 226 227 227 225 228 230 233 234 236
309 310 314 316 318 320 321 319 320 323 329 330 330 328 331 333 329 330 321 315 312 313 308 306 298 291 275 258 248 245 244 238 235 234 235 236 234 233 231 229 227 226 228 231 228 229 233 234 236
308 310 313 315 318 318 320 320 321 324 328 328 328 332 332 331 329 329 320 319 317 317 314 313 304 297 285 267 254 241 242 238 235 234 234 234 234 232 232 231 228 228 228 230 232 231 231 234 233
306 310 314 315 317 319 320 320 322 325 328 327 328 331 331 334 331 329 325 327 326 325 323 319 308 300 289 274 255 245 238 240 237 234 233 234 234 232 231 232 232 229 229 231 232 234 234 233 235
305 309 313 313 315 320 321 322 322 325 325 327 328 332 334 335 340 327 331 331 331 331 327 319 311 303 294 277 261 248 242 238 238 235 232 232 233 235 232 231 232 231 230 231 234 234 235 236 234
Height
10715 10708 10702 10696 10690 10682 10679 10676 10672 10669 10667 10660 10657 10655 10654 10655 10657 10660 10662 10667 10671 10679 10690 10701 10708 10716 10722 10729 10729 10734 10740 10744 10750 10752 10754 10757 10760 10765 10769 10772 10774 10775 10779 10778 10778 10779 10781 10782 10784
10713 10707 10699 10693 10686 10679 10675 10670 10667 10664 10663 10659 10653 10651 10650 10649 10650 10652 10655 10658 10663 10672 10681 10690 10698 10706 10714 10718 10721 10724 10732 10735 10744 10742 10745 10747 10750 10754 10758 10762 10767 10769 10772 10771 10772 10772 10773 10776 10779
10709 10703 10697 10690 10684 10677 10671 10667 10663 10658 10656 10654 10652 10648 10646 10645 10645 10645 10648 10651 10657 10661 10670 10679 10686 10692 10702 10705 10709 10710 10714 10721 10726 10717 10729 10733 10737 10743 10745 10751 10755 10762 10765 10765 10764 10764 10766 10768 10772
10706 10701 10695 10689 10683 10676 10670 10665 10661 10656 10652 10649 10648 10647 10643 10641 10640 10640 10641 10643 10648 10654 10663 10673 10680 10687 10692 10693 10694 10696 10695 10704 10708 10711 10713 10714 10723 10728 10732 10737 10742 10748 10753 10756 10757 10757 10759 10760 10762
10703 10698 10693 10687 10682 10676 10669 10664 10659 10655 10651 10647 10644 10642 10640 10637 10635 10635 10636 10638 10641 10646 10653 10661 10669 10678 10681 10682 10684 10686 10686 10691 10700 10700 10701 10709 10709 10711 10717 10723 10730 10736 10743 10747 10748 10748 10750 10751 10753
10700 10695 10690 10685 10680 10674 10668 10662 10658 10653 10650 10646 10641 10638 10637 10636 10634 10632 10633 10634 10635 10640 10644 10649 10658 10665 10670 10673 10674 10675 10678 10679 10686 10683 10689 10692 10696 10701 10706 10712 10718 10725 10733 10737 10739 10740 10741 10743 10742
10698 10693 10687 10683 10677 10672 10668 10662 10657 10652 10647 10643 10639 10635 10632 10631 10631 10629 10628 10628 10630 10633 10638 10640 10645 10655 10661 10663 10664 10666 10667 10668 10671 10670 10675 10682 10684 10692 10697 10703 10710 10716 10725 10733 10732 10730 10732 10734 10734
10695 10691 10686 10681 10675 10671 10666 10661 10656 10652 10645 10640 10636 10632 10629 10626 10625 10624 10623 10623 10623 10625 10630 10633 10636 10641 10647 10651 10656 10660 10659 10660 10662 10660 10662 10673 10674 10681 10685 10690 10696 10706 10718 10719 10716 10723 10723 10724 10726
10691 10687 10683 10678 10673 10668 10663 10659 10654 10649 10644 10638 10634 10630 10626 10621 10619 10618 10618 10618 10617 10618 10620 10624 10627 10632 10636 10639 10646 10648 10650 10651 10651 10650 10654 10663 10667 10669 10672 10679 10685 10695 10706 10713 10716 10715 10713 10715 10715
10688 10683 10679 10674 10669 10663 10660 10656 10650 10646 10642 10636 10629 10625 10622 10618 10615 10611 10608 10607 10609 10611 10611 10612 10615 10615 10623 10627 10630 10634 10634 10637 10639 10642 10646 10653 10656 10658 10659 10669 10676 10687 10694 10703 10702 10697 10700 10704 10707
10684 10680 10674 10669 10663 10658 10654 10649 10645 10639 10634 10630 10625 10620 10618 10614 10609 10606 10602 10601 10599 10597 10600 10602 10603 10604 10607 10611 10614 10617 10622 10625 10625 10630 10632 10638 10644 10645 10651 10659 10666 10678 10684 10691 10689 10685 10690 10692 10695
10680 10675 10670 10664 10658 10653 10649 10644 10639 10634 10628 10622 10616 10612 10608 10605 10602 10598 10595 10591 10589 10589 10588 10591 10590 10595 10597 10599 10600 10600 10604 10609 10612 10619 10620 10627 10629 10632 10639 10647 10654 10666 10674 10679 10678 10678 10677 10679 10682
10676 10670 10665 10658 10652 10646 10642 10637 10633 10628 10621 10615 10608 10603 10599 10594 10591 10588 10583 10579 10578 10576 10576 10577 10576 10579 10581 10581 10585 10586 10587 10591 10596 10601 10607 10615 10615 10619 10624 10632 10643 10653 10662 10665 10666 10664 10664 10666 10669
10672 10666 10660 10653 10645 10639 10635 10630 10625 10619 10614 10606 10600 10595 10589 10584 10579 10573 10569 10565 10561 10561 10561 10562 10564 10563 10566 10568 10567 10569 10570 10574 10579 10581 10587 10597 10603 10607 10610 10618 10627 10639 10648 10652 10653 10653 10652 10655 10658
10667 10662 10656 10648 10639 10632 10628 10623 10617 10610 10605 10599 10591 10586 10581 10574 10567 10560 10553 10549 10545 10542 10543 10542 10542 10543 10541 10543 10548 10551 10554 10557 10560 10562 10571 10577 10586 10593 10600 10601 10614 10623 10633 10638 10641 10641 10643 10644 10645
10661 10656 10650 10641 10633 10626 10619 10615 10608 10601 10594 10589 10581 10574 10569 10561 10553 10544 10537 10530 10525 10524 10523 10522 10520 10518 10518 10519 10521 10524 10531 10535 10540 10545 10549 10558 10564 10576 10582 10586 10597 10606 10615 10622 10625 10628 10629 10632 10633
10653 10648 10642 10634 10626 10618 10610 10605 10600 10592 10586 10578 10570 10563 10554 10545 10537 10528 10518 10510 10504 10502 10500 10497 10497 10495 10494 10496 10497 10499 10502 10509 10517 10522 10530 10536 10546 10556 10563 10571 10578 10587 10597 10605 10610 10613 10616 10618 10620
10647 10641 10634 10627 10620 10612 10604 10595 10591 10583 10576 10567 10558 10550 10541 10532 10523 10510 10500 10490 10484 10480 10477 10474 10471 10467 10467 10469 10471 10475 10476 10482 10490 10498 10507 10516 10520 10534 10543 10554 10559 10565 10578 10587 10592 10597 10602 10604 10604
10639 10633 10626 10619 10612 10604 10597 10587 10578 10571 10564 10556 10546 10536 10526 10515 10503 10492 10481 10468 10460 10457 10452 10445 10442 10440 10439 10441 10445 10449 10452 10457 10465 10472 10482 10490 10499 10508 10523 10534 10541 10541 10553 10563 10571 10580 10585 10589 10588
10631 10625 10618 10611 10604 10596 10588 10579 10571 10563 10553 10543 10532 10520 10510 10498 10484 10472 10459 10447 10440 10434 10427 10421 10417 10415 10414 10416 10419 10423 10427 10431 10437 10446 10453 10464 10476 10485 10498 10512 10515 10524 10526 10540 10548 10558 10565 10572 10572
10623 10616 10609 10602 10595 10587 10578 10568 10561 10553 10542 10532 10521 10507 10494 10480 10465 10451 10438 10429 10421 10412 10404 10399 10394 10392 10390 10390 10393 10397 10404 10409 10412 10420 10429 10436 10446 10460 10474 10485 10493 10499 10513 10517 10523 10537 10544 10549 10554
10614 10607 10601 10593 10586 10578 10567 10558 10550 10542 10531 10520 10505 10491 10477 10458 10443 10430 10416 10408 10402 10393 10385 10377 10371 10366 10365 10365 10366 10368 10376 10382 10389 10395 10404 10411 10418 10429 10448 10459 10466 10475 10489 10496 10503 10512 10522 10527 10535
10604 10597 10591 10584 10576 10569 10558 10548 10539 10527 10517 10504 10489 10475 10459 10443 10428 10412 10397 10384 10378 10368 10362 10354 10347 10343 10339 10338 10341 10341 10345 10354 10362 10370 10376 10386 10395 10405 10417 10433 10441 10452 10462 10475 10476 10483 10494 10504 10514
10593 10586 10580 10574 10566 10559 10548 10536 10528 10515 10504 10488 10473 10460 10444 10428 10409 10394 10379 10364 10355 10345 10334 10322 10314 10313 10313 10311 10313 10316 10320 10326 10335 10339 10348 10357 10369 10378 10391 10404 10419 10425 10435 10445 10453 10459 10466 10484 10493
10581 10575 10568 10565 10556 10547 10536 10526 10515 10503 10491 10474 10458 10444 10430 10413 10395 10380 10361 10346 10331 10317 10306 10295 10287 10284 10279 10283 10284 10288 10292 10296 10305 10315 10323 10331 10341 10352 10364 10378 10394 10400 10410 10420 10426 10436 10444 10460 10474
10569 10562 10554 10548 10543 10534 10521 10507 10497 10486 10472 10456 10444 10429 10413 10392 10373 10354 10338 10326 10310 10295 10280 10267 10259 10256 10252 10253 10257 10257 10264 10270 10277 10286 10299 10310 10320 10330 10338 10354 10368 10377 10381 10394 10399 10416 10421 10431 10452
10557 10548 10541 10532 10527 10518 10507 10492 10483 10471 10457 10439 10425 10410 10391 10370 10354 10332 10319 10303 10286 10270 10258 10245 10235 10229 10228 10226 10228 10231 10238 10243 10252 10262 10273 10284 10296 10309 10319 10331 10342 10355 10363 10369 10380 10395 10399 10413 10428
10544 10536 10528 10518 10510 10503 10495 10478 10462 10454 10441 10424 10411 10394 10373 10354 10337 10315 10305 10285 10267 10250 10234 10226 10217 10209 10207 10205 10206 10209 10212 10222 10229 10238 10248 10260 10270 10282 10294 10305 10321 10333 10340 10348 10357 10370 10378 10387 10403
10529 10521 10512 10503 10493 10482 10476 10461 10448 10436 10421 10407 10391 10376 10359 10340 10318 10296 10280 10264 10245 10232 10216 10208 10200 10193 10189 10184 10184 10187 10192 10198 10207 10215 10224 10237 10247 10257 10269 10279 10295 10311 10317 10326 10336 10345 10355 10365 10379
10516 10507 10498 10490 10480 10468 10455 10447 10428 10420 10404 10389 10375 10358 10341 10319 10294 10277 10259 10245 10227 10213 10202 10191 10185 10178 10172 10169 10166 10168 10172 10175 10183 10192 10201 10211 10224 10236 10248 10259 10271 10285 10294 10304 10312 10323 10333 10340 10354